KI5UQA Weather Reports


time (UTC)temp
C
wind
direction
speed
KPH
gust
KPH
rain 1hr
cm
rain 24hr
cm
rain mn
cm
humidity
%
barometer
mb
20260510144004 16 40 25.7 88.5 0.00 0.00 0.00 74 895.7
20260510143004 16 27 14.5 38.6 0.00 0.00 0.00 75 895.6
20260510140004 16 31 24.1 40.2 0.00 0.00 0.00 77 895.2
20260510135004 16 36 25.7 38.6 0.00 0.00 0.00 78 895.3
20260510134004 16 45 25.7 35.4 0.00 0.00 0.00 77 894.9
20260510133004 16 59 14.5 37.0 0.00 0.00 0.00 78 894.6
20260510132004 16 54 20.9 32.2 0.00 0.00 0.00 78 894.1
20260510131004 16 56 20.9 33.8 0.00 0.00 0.00 78 893.9
20260510130004 16 50 24.1 37.0 0.00 0.00 0.00 79 893.7
20260510125004 16 49 29.0 40.2 0.00 0.00 0.00 79 893.4
20260510124004 16 51 24.1 35.4 0.00 0.00 0.00 79 893.2
20260510123004 16 51 25.7 38.6 0.00 0.00 0.00 81 893.0
20260510122004 16 55 19.3 37.0 0.00 0.00 0.00 81 892.9
20260510121005 16 56 17.7 32.2 0.00 0.00 0.00 82 892.9
20260510120005 16 55 22.5 32.2 0.00 0.00 0.00 82 892.4
20260510114004 15 57 19.3 33.8 0.00 0.00 0.00 84 892.6
20260510113004 15 71 19.3 35.4 0.00 0.00 0.00 84 892.1
20260510111004 15 51 19.3 37.0 0.00 0.00 0.00 84 892.2
20260510110005 15 53 24.1 37.0 0.00 0.00 0.00 84 892.0
20260510105004 15 46 24.1 38.6 0.00 0.00 0.00 83 892.0
20260510104004 15 46 24.1 32.2 0.00 0.00 0.00 82 891.6
20260510101004 15 61 11.3 22.5 0.00 0.00 0.00 81 891.2
20260510095003 16 75 9.7 22.5 0.00 0.00 0.00 79 891.1
20260510094004 16 81 14.5 22.5 0.00 0.00 0.00 79 890.9
20260510093004 16 67 11.3 20.9 0.00 0.00 0.00 78 890.6
20260510092004 16 57 11.3 20.9 0.00 0.00 0.00 76 890.7
20260510091004 16 66 12.9 22.5 0.00 0.00 0.00 75 890.7
20260510090004 17 82 14.5 22.5 0.00 0.00 0.00 74 890.6
20260510085004 17 81 14.5 29.0 0.00 0.00 0.00 71 890.5
20260510083004 18 61 16.1 25.7 0.00 0.00 0.00 68 890.5
20260510082003 18 63 14.5 22.5 0.00 0.00 0.00 67 890.5
20260510081005 19 73 11.3 20.9 0.00 0.00 0.00 66 890.4
20260510075004 20 65 8.0 16.1 0.00 0.00 0.00 65 890.5
20260510074003 20 59 9.7 16.1 0.00 0.00 0.00 65 890.6
20260510073004 20 62 9.7 20.9 0.00 0.00 0.00 64 890.6
20260510072004 20 80 16.1 22.5 0.00 0.00 0.00 64 890.4
20260510071004 20 103 16.1 22.5 0.00 0.00 0.00 65 890.3
20260510070003 20 113 14.5 22.5 0.00 0.00 0.00 65 890.3
20260510065003 20 66 11.3 22.5 0.00 0.00 0.00 64 890.0
20260510064004 20 62 12.9 20.9 0.00 0.00 0.00 64 889.7
20260510063004 21 60 14.5 20.9 0.00 0.00 0.00 62 889.6
20260510062004 21 44 14.5 27.4 0.00 0.00 0.00 61 889.5
20260510061003 21 43 19.3 27.4 0.00 0.00 0.00 60 889.4
20260510060003 21 41 14.5 20.9 0.00 0.00 0.00 58 889.6
20260510055004 21 53 11.3 16.1 0.00 0.00 0.00 58 889.6
20260510054006 22 105 11.3 25.7 0.00 0.00 0.00 56 889.5
20260510053006 22 88 16.1 27.4 0.00 0.00 0.00 55 889.4
20260510051006 22 91 16.1 40.2 0.00 0.00 0.00 54 889.6
20260510050005 23 45 20.9 29.0 0.00 0.00 0.00 52 888.9
20260510045006 23 55 11.3 25.7 0.00 0.00 0.00 51 889.8
20260510044006 23 42 20.9 24.1 0.00 0.00 0.00 49 889.3
20260510043006 23 62 11.3 20.9 0.00 0.00 0.00 46 888.9
20260510042006 24 66 9.7 19.3 0.00 0.00 0.00 42 888.8
20260510041005 25 97 12.9 24.1 0.00 0.00 0.00 40 888.5
20260510040006 25 67 12.9 20.9 0.00 0.00 0.00 31 888.2
20260510035006 25 77 8.0 11.3 0.00 0.00 0.00 16 888.2
20260510034006 26 84 4.8 8.0 0.00 0.00 0.00 16 888.0
20260510032006 27 310 4.8 4.8 0.00 0.00 0.00 14 887.8
20260510030006 28 283 3.2 8.0 0.00 0.00 0.00 14 887.8
20260510025006 29 239 3.2 14.5 0.00 0.00 0.00 13 887.7
20260510024006 29 215 8.0 20.9 0.00 0.00 0.00 12 887.6
20260510023006 27 282 11.3 20.9 0.00 0.00 0.00 14 887.4
20260510022006 26 272 9.7 24.1 0.00 0.00 0.00 14 887.6
20260510020005 26 308 1.6 4.8 0.00 0.00 0.00 12 886.8
20260510015006 27 322 3.2 8.0 0.00 0.00 0.00 11 886.7
20260510014006 28 3 4.8 8.0 0.00 0.00 0.00 10 886.6
20260510013006 28 4 4.8 9.7 0.00 0.00 0.00 10 886.5
20260510011006 30 321 6.4 9.7 0.00 0.00 0.00 11 886.4
20260510010005 31 318 8.0 16.1 0.00 0.00 0.00 10 886.3
20260510005006 32 317 11.3 16.1 0.00 0.00 0.00 10 886.2
20260510000005 32 287 11.3 22.5 0.00 0.00 0.00 10 886.3
20260509235006 32 312 12.9 25.7 0.00 0.00 0.00 10 886.3
20260509234006 32 296 20.9 29.0 0.00 0.00 0.00 10 886.2
20260509233005 33 313 20.9 29.0 0.00 0.00 0.00 10 886.2
20260509232005 33 303 22.5 32.2 0.00 0.00 0.00 10 886.4
20260509231005 33 307 16.1 29.0 0.00 0.00 0.00 9 886.5
20260509230006 33 280 20.9 37.0 0.00 0.00 0.00 10 886.5
20260509223006 33 304 24.1 37.0 0.00 0.00 0.00 11 886.2
20260509222006 33 299 16.1 41.8 0.00 0.00 0.00 11 886.1
20260509221005 33 305 22.5 33.8 0.00 0.00 0.00 12 886.0
20260509220006 32 269 16.1 46.7 0.00 0.00 0.00 12 886.5
20260509212006 32 280 16.1 35.4 0.00 0.00 0.00 12 886.7
20260509211006 33 301 14.5 22.5 0.00 0.00 0.00 11 886.9
20260509210006 33 286 14.5 38.6 0.00 0.00 0.00 10 887.2
20260509205007 34 279 14.5 37.0 0.00 0.00 0.00 11 887.0
20260509203006 33 297 16.1 41.8 0.00 0.00 0.00 12 887.2
20260509202006 33 271 16.1 32.2 0.00 0.00 0.00 14 886.9
20260509201006 33 227 11.3 24.1 0.00 0.00 0.00 13 887.5
20260509200006 33 257 8.0 27.4 0.00 0.00 0.00 13 887.7
20260509195005 33 251 11.3 22.5 0.00 0.00 0.00 13 887.8
20260509194005 33 247 9.7 22.5 0.00 0.00 0.00 14 888.2
20260509193005 32 246 8.0 19.3 0.00 0.00 0.00 15 888.2
20260509192006 31 272 11.3 32.2 0.00 0.00 0.00 17 888.4
20260509191005 32 213 12.9 27.4 0.00 0.00 0.00 18 888.7
20260509190006 31 216 12.9 29.0 0.00 0.00 0.00 19 888.9
20260509184005 31 220 11.3 29.0 0.00 0.00 0.00 19 889.4
20260509183006 31 223 9.7 33.8 0.00 0.00 0.00 20 889.7
20260509182006 30 226 12.9 27.4 0.00 0.00 0.00 20 889.8
20260509181005 30 210 14.5 32.2 0.00 0.00 0.00 21 889.9
20260509180006 29 207 17.7 29.0 0.00 0.00 0.00 21 890.0
20260509175005 29 196 20.9 32.2 0.00 0.00 0.00 22 890.1
20260509174005 28 219 14.5 32.2 0.00 0.00 0.00 24 890.4
20260509173006 28 201 20.9 37.0 0.00 0.00 0.00 25 890.5
20260509172005 28 174 14.5 32.2 0.00 0.00 0.00 27 890.8
20260509171005 27 181 19.3 32.2 0.00 0.00 0.00 28 890.8
20260509165006 27 181 16.1 27.4 0.00 0.00 0.00 31 891.0
20260509162005 25 180 16.1 27.4 0.00 0.00 0.00 38 891.4
20260509161005 25 205 16.1 24.1 0.00 0.00 0.00 40 891.4
20260509160005 25 178 17.7 29.0 0.00 0.00 0.00 40 891.5
20260509155005 23 198 11.3 25.7 0.00 0.00 0.00 44 891.6
20260509154006 22 170 11.3 27.4 0.00 0.00 0.00 48 891.7
20260509153006 22 198 11.3 20.9 0.00 0.00 0.00 51 891.8
20260509151005 21 174 11.3 20.9 0.00 0.00 0.00 56 892.0
20260509150005 20 181 11.3 20.9 0.00 0.00 0.00 58 891.9
20260509145006 20 174 16.1 24.1 0.00 0.00 0.00 58 892.0